User: anonymous   Login
Location: Unspecified
(0.0000°N, 0.0000°E)
Time: 03:24:42
(UTC+02:00)
Language:

GPS 2-12 Rocket1 - Orbit

View from above orbital plane
View from above orbital plane
View from above satellite
View from above satellite

Ground track
Ground track

The orbit data is extracted from the following two-line orbital elements,

1 21891U 92009B   18146.89276977  .00000587  00000-0  21503-4 0  9991
2 21891  19.9970  71.7227 0047009   2.9588 357.1104 14.83038930417356
Epoch (UTC): 26 May 2018 21:25:35
Eccentricity: 0.0047009
inclination: 19.9970°
perigee height: 587 km
apogee height: 652 km
right ascension of ascending node: 71.7227°
argument of perigee: 2.9588°
revolutions per day: 14.83038930
mean anomaly at epoch: 357.1104°
orbit number at epoch: 41735

The dashed part of the orbit path shows where the satellite is in the earth's shadow,  

DLR